Find Kosmos-2144

NORAD ID: 21300 Int'l Des: 1991-033 Owner: UNKSR Country: SU operational
LEOCIRCULARPOLAR

Current View

Loading 3D Globe...

About Kosmos-2144

Kosmos-2144 (NORAD 21300) is a satellite launched May 16, 1991 by UNKSR of SU. It operates in LEO, CIRCULAR, POLAR orbit with a mass of 225.00 kg.

Upcoming Passes

Passes for default location (London). Set your location on the main map for personalized predictions.

Altitude History

Loading altitude history...

Two-Line Element Set

1 21300U 91033B 26194.78607645 .00000005 00000-0 -31948-4 0 9992
2 21300 82.5800 312.4025 0005822 61.1966 298.9709 12.62393795619810
Epoch: Jul 13, 2026 • Age: 19 hours

Current Status

Altitude 1415.5 km
Apogee / Perigee N/A
Velocity 7.15 km/s
Sub-Earth Point -8.30°S, 170.73°E
Launch Date May 16, 1991
Age 35.1 years
Type other

Technical Details

Classification Payload
Mass 225.00 kg
Dry Mass 225.00 kg
Total Mass 225.00 kg
Length 1.60 m
Diameter 0.80 m
Span 7.00 m
Shape Cyl + Ant
Manufacturer NPOPM
Bus Type Strela-3
Phase Status In Orbit
Owner/State UNKSR/SU

Most Searched